Regional Weather Roundup
Issued by NWS

Home | Current Version | Previous Version | Text Only | Print | Product List | Glossary Off
Versions: 1 2 3 4 5 6 7 8 9 10 11 12 13 14 15 16 17 18 19 20 21 22 23 24 25 26 27 28

000
ASUS45 KCYS 081210
RWRWY

WYOMING REGIONAL WEATHER ROUNDUP
NATIONAL WEATHER SERVICE CHEYENNE WY
500 AM MST THU DEC 08 2016

NOTE:  "FAIR" INDICATES FEW OR NO CLOUDS BELOW 12,000 FEET
WITH NO SIGNIFICANT WEATHER AND/OR OBSTRUCTIONS TO VISIBILITY.

WYZ001-081300-
YELLOWSTONE NATIONAL PARK

CITY           SKY/WX    TMP DP  RH WIND       PRES   REMARKS
LK YELLOWSTONE   N/A    -13 -17  82 NW3       30.15F
6HR MIN TEMP: -13; 6HR MAX TEMP: -10;

W YELLOWSTONE  NOT AVBL

$$
WYZ002>013-054>058-071-098>099-081300-
NORTHERN WYOMING

CITY           SKY/WX    TMP DP  RH WIND       PRES   REMARKS
JACKSON        FAIR     -20 -26  76 N6        30.28R WCI -36
CODY           FAIR     -11 -15  82 S5        30.35F WCI -23
GREYBULL       FAIR      -4  -9  79 CALM      30.47S
6HR MIN TEMP:  -5; 6HR MAX TEMP:   0;

WORLAND        FAIR      -9 -13  83 CALM      30.44S
6HR MIN TEMP: -10; 6HR MAX TEMP:  -3;

SHERIDAN       FAIR     -10 -16  74 CALM      30.47S
6HR MIN TEMP: -11; 6HR MAX TEMP:  -5;

BUFFALO        FAIR      -3 -15  56 SW5       30.37S WCI -13
6HR MIN TEMP:  -7; 6HR MAX TEMP:   0;

GILLETTE       FAIR     -18 -22  82 CALM      30.44S
6HR MIN TEMP: -19; 6HR MAX TEMP:  -5;

HULETT         FAIR      -9 -15  77 MISG      30.46S
NEWCASTLE      FAIR     -11 -17  77 NW6       30.47R WCI -25

$$
WYZ014>020-022>026-101>103-081300-
CENTRAL WYOMING

CITY           SKY/WX    TMP DP  RH WIND       PRES   REMARKS
BIG PINEY      FAIR     -19 -22  86 CALM      30.24S
6HR MIN TEMP: -20; 6HR MAX TEMP: -11;

PINEDALE       FAIR     -22 -27  76 W10       30.24S WCI -44
DUBOIS         FAIR      -8 -15  71 MISG      30.15F
LANDER         FAIR      -3 -10  72 CALM      30.30S
6HR MIN TEMP:  -4; 6HR MAX TEMP:   3;

RIVERTON       FAIR      -3  -6  87 CALM      30.31F
6HR MIN TEMP:  -4; 6HR MAX TEMP:   4;

CASPER         FAIR     -28 -34  72 CALM      30.36S
6HR MIN TEMP: -31; 6HR MAX TEMP: -22;

DOUGLAS        FAIR     -21 -29  66 NW5       30.42S WCI -34
6HR MIN TEMP: -22; 6HR MAX TEMP: -10;


$$
WYZ021-027>030-104>119-081300-
SOUTHERN WYOMING

CITY           SKY/WX    TMP DP  RH WIND       PRES   REMARKS
EVANSTON       CLOUDY     2  -8  63 E5        30.17F WCI  -8
6HR MIN TEMP:  -3; 6HR MAX TEMP:   3;

KEMMERER         N/A     -8 -13  77 N10       30.18S WCI -26
FORT BRIDGER   FAIR      -2  -6  83 CALM      30.23F
ROCK SPRINGS   FAIR      -6  -9  86 E5        30.23S WCI -17
6HR MIN TEMP:  -7; 6HR MAX TEMP:   0;

DIXON          FAIR      -5 -12  70 SE6       30.29F WCI -17
RAWLINS        FAIR     -14 -20  74 NE3       30.24S
6HR MIN TEMP: -17; 6HR MAX TEMP:  -9;

SARATOGA       FAIR      -6 -13  71 CALM      30.23F
LARAMIE        FAIR     -15 -19  82 CALM      30.20R
6HR MIN TEMP: -23; 6HR MAX TEMP: -13;

CHEYENNE       FAIR     -14 -19  79 W8        30.30S WCI -31
6HR MIN TEMP: -16; 6HR MAX TEMP: -12;

TORRINGTON     FAIR      -9 -16  71 CALM      30.48R
6HR MIN TEMP: -10; 6HR MAX TEMP:  -6;

PINE BLUFFS    FAIR     -17 -22  76 MISG      30.41S

$$




USA.gov is the U.S. government's official web portal to all federal, state and local government web resources and services.